Time,TemperatureF,DewpointF,PressureIn,WindDirection,WindDirectionDegrees,WindSpeedMPH,WindSpeedGustMPH,Humidity,HourlyPrecipIn,Conditions,Clouds,dailyrainin,SolarRadiationWatts/m^2,SoftwareType,DateUTC
2013-02-17 00:01:00,38.0,36.0,-100.00,South,177,0.0,4.0,92,0.00,,,0.00,22.000000,,2013-02-17 08:01:00,
2013-02-17 00:11:00,38.0,36.0,-100.00,South,177,0.0,4.0,92,0.00,,,0.00,22.000000,,2013-02-17 08:11:00,
2013-02-17 00:21:00,38.0,36.0,-100.00,South,177,0.0,4.0,92,0.00,,,0.00,22.000000,,2013-02-17 08:21:00,
2013-02-17 00:31:00,38.0,36.0,-100.00,South,177,0.0,4.0,92,0.00,,,0.00,22.000000,,2013-02-17 08:31:00,
2013-02-17 01:01:00,37.0,36.0,-100.00,South,189,1.0,3.0,95,0.00,,,0.00,23.000000,,2013-02-17 09:01:00,
2013-02-17 01:11:00,37.0,36.0,-100.00,South,189,1.0,3.0,95,0.00,,,0.00,23.000000,,2013-02-17 09:11:00,
2013-02-17 01:21:00,37.0,36.0,-100.00,South,189,1.0,3.0,95,0.00,,,0.00,23.000000,,2013-02-17 09:21:00,
2013-02-17 01:31:00,37.0,36.0,-100.00,South,189,1.0,3.0,95,0.00,,,0.00,23.000000,,2013-02-17 09:31:00,
2013-02-17 02:01:00,38.0,37.0,-100.00,SSE,153,0.0,2.0,96,0.00,,,0.00,23.000000,,2013-02-17 10:01:00,
2013-02-17 02:11:00,38.0,37.0,-100.00,SSE,153,0.0,2.0,96,0.00,,,0.00,23.000000,,2013-02-17 10:11:00,
2013-02-17 02:21:00,38.0,37.0,-100.00,SSE,153,0.0,2.0,96,0.00,,,0.00,23.000000,,2013-02-17 10:21:00,
2013-02-17 02:31:00,38.0,37.0,-100.00,SSE,153,0.0,2.0,96,0.00,,,0.00,23.000000,,2013-02-17 10:31:00,
2013-02-17 03:01:00,37.0,36.0,-100.00,SSW,194,0.0,0.0,97,0.00,,,0.00,24.000000,,2013-02-17 11:01:00,
2013-02-17 03:11:00,37.0,36.0,-100.00,SSW,194,0.0,0.0,97,0.00,,,0.00,24.000000,,2013-02-17 11:11:00,
2013-02-17 03:21:00,37.0,36.0,-100.00,SSW,194,0.0,0.0,97,0.00,,,0.00,24.000000,,2013-02-17 11:21:00,
2013-02-17 03:32:00,37.0,36.0,-100.00,SSW,194,0.0,0.0,97,0.00,,,0.00,24.000000,,2013-02-17 11:32:00,
2013-02-17 04:03:00,38.0,37.0,-100.00,SW,218,0.0,1.0,97,0.00,,,0.00,24.000000,,2013-02-17 12:03:00,
2013-02-17 04:11:00,38.0,37.0,-100.00,SW,218,0.0,1.0,97,0.00,,,0.00,24.000000,,2013-02-17 12:11:00,
2013-02-17 04:22:00,38.0,37.0,-100.00,SW,218,0.0,1.0,97,0.00,,,0.00,24.000000,,2013-02-17 12:22:00,
2013-02-17 04:31:00,38.0,37.0,-100.00,SW,218,0.0,1.0,97,0.00,,,0.00,24.000000,,2013-02-17 12:31:00,
2013-02-17 05:02:00,37.0,36.0,-100.00,SSW,195,0.0,3.0,97,0.00,,,0.00,25.000000,,2013-02-17 13:02:00,
2013-02-17 05:11:00,37.0,36.0,-100.00,SSW,195,0.0,3.0,97,0.00,,,0.00,25.000000,,2013-02-17 13:11:00,
2013-02-17 05:21:00,37.0,36.0,-100.00,SSW,195,0.0,3.0,97,0.00,,,0.00,25.000000,,2013-02-17 13:21:00,
2013-02-17 05:32:00,37.0,36.0,-100.00,SSW,195,0.0,3.0,97,0.00,,,0.00,25.000000,,2013-02-17 13:32:00,
2013-02-17 06:01:00,38.0,37.0,-100.00,South,179,0.0,2.0,95,0.00,,,0.00,25.000000,,2013-02-17 14:01:00,
2013-02-17 06:11:00,38.0,37.0,-100.00,South,179,0.0,2.0,95,0.00,,,0.00,25.000000,,2013-02-17 14:11:00,
2013-02-17 06:21:00,38.0,37.0,-100.00,South,179,0.0,2.0,95,0.00,,,0.00,25.000000,,2013-02-17 14:21:00,
2013-02-17 06:32:00,38.0,37.0,-100.00,South,179,0.0,2.0,95,0.00,,,0.00,25.000000,,2013-02-17 14:32:00,
2013-02-17 07:01:00,37.0,36.0,-100.00,NE,45,0.0,3.0,97,0.00,,,0.00,27.000000,,2013-02-17 15:01:00,
2013-02-17 07:11:00,37.0,36.0,-100.00,NE,45,0.0,3.0,97,0.00,,,0.00,27.000000,,2013-02-17 15:11:00,
2013-02-17 07:21:00,37.0,36.0,-100.00,NE,45,0.0,3.0,97,0.00,,,0.00,27.000000,,2013-02-17 15:21:00,
2013-02-17 07:31:00,37.0,36.0,-100.00,NE,45,0.0,3.0,97,0.00,,,0.00,27.000000,,2013-02-17 15:31:00,
2013-02-17 08:01:00,35.0,35.0,-100.00,North,0,0.0,1.0,99,0.00,,,0.00,28.000000,,2013-02-17 16:01:00,
2013-02-17 08:11:00,35.0,35.0,-100.00,North,0,0.0,1.0,99,0.00,,,0.00,28.000000,,2013-02-17 16:11:00,
2013-02-17 08:21:00,35.0,35.0,-100.00,North,0,0.0,1.0,99,0.00,,,0.00,28.000000,,2013-02-17 16:21:00,
2013-02-17 08:31:00,35.0,35.0,-100.00,North,0,0.0,1.0,99,0.00,,,0.00,28.000000,,2013-02-17 16:31:00,
2013-02-17 08:52:00,34.0,34.0,-100.00,NNE,32,0.0,2.0,100,0.01,,,0.01,28.000000,,2013-02-17 16:52:00,
2013-02-17 09:02:00,34.0,34.0,-100.00,NNE,32,0.0,2.0,100,0.01,,,0.01,28.000000,,2013-02-17 17:02:00,
2013-02-17 09:11:00,34.0,34.0,-100.00,NNE,32,0.0,2.0,100,0.01,,,0.01,28.000000,,2013-02-17 17:11:00,
2013-02-17 09:21:00,34.0,34.0,-100.00,NNE,32,0.0,2.0,100,0.01,,,0.01,28.000000,,2013-02-17 17:21:00,
2013-02-17 10:01:00,40.0,37.0,-100.00,SE,130,1.0,3.0,90,-99.99,,,0.01,27.000000,,2013-02-17 18:01:00,
2013-02-17 10:11:00,40.0,37.0,-100.00,SE,130,1.0,3.0,90,-99.99,,,0.01,27.000000,,2013-02-17 18:11:00,
2013-02-17 10:21:00,40.0,37.0,-100.00,SE,130,1.0,3.0,90,-99.99,,,0.01,27.000000,,2013-02-17 18:21:00,
2013-02-17 10:33:00,40.0,37.0,-100.00,SE,130,1.0,3.0,90,-99.99,,,0.01,27.000000,,2013-02-17 18:33:00,
2013-02-17 11:01:00,42.0,37.0,-100.00,NW,312,1.0,5.0,81,0.00,,,0.01,23.000000,,2013-02-17 19:01:00,
2013-02-17 11:11:00,42.0,37.0,-100.00,NW,312,1.0,5.0,81,0.00,,,0.01,23.000000,,2013-02-17 19:11:00,
2013-02-17 11:21:00,42.0,37.0,-100.00,NW,312,1.0,5.0,81,0.00,,,0.01,23.000000,,2013-02-17 19:21:00,
2013-02-17 11:32:00,42.0,37.0,-100.00,NW,312,1.0,5.0,81,0.00,,,0.01,23.000000,,2013-02-17 19:32:00,
2013-02-17 12:01:00,45.0,35.0,-100.00,South,185,2.0,6.0,68,0.00,,,0.01,19.000000,,2013-02-17 20:01:00,
2013-02-17 12:11:00,45.0,35.0,-100.00,South,185,2.0,6.0,68,0.00,,,0.01,19.000000,,2013-02-17 20:11:00,
2013-02-17 12:21:00,45.0,35.0,-100.00,South,185,2.0,6.0,68,0.00,,,0.01,19.000000,,2013-02-17 20:21:00,
2013-02-17 12:31:00,45.0,35.0,-100.00,South,185,2.0,6.0,68,0.00,,,0.01,19.000000,,2013-02-17 20:31:00,
2013-02-17 13:01:00,44.0,34.0,-100.00,SW,216,1.0,4.0,69,0.00,,,0.01,18.000000,,2013-02-17 21:01:00,
2013-02-17 13:11:00,44.0,34.0,-100.00,SW,216,1.0,4.0,69,0.00,,,0.01,18.000000,,2013-02-17 21:11:00,
2013-02-17 13:21:00,44.0,34.0,-100.00,SW,216,1.0,4.0,69,0.00,,,0.01,18.000000,,2013-02-17 21:21:00,
2013-02-17 13:31:00,44.0,34.0,-100.00,SW,216,1.0,4.0,69,0.00,,,0.01,18.000000,,2013-02-17 21:31:00,
2013-02-17 14:01:00,45.0,37.0,-100.00,SSW,206,1.0,5.0,72,0.00,,,0.01,18.000000,,2013-02-17 22:01:00,
2013-02-17 14:12:00,45.0,37.0,-100.00,SSW,206,1.0,5.0,72,0.00,,,0.01,18.000000,,2013-02-17 22:12:00,
2013-02-17 14:21:00,45.0,37.0,-100.00,SSW,206,1.0,5.0,72,0.00,,,0.01,18.000000,,2013-02-17 22:21:00,
2013-02-17 14:32:00,45.0,37.0,-100.00,SSW,206,1.0,5.0,72,0.00,,,0.01,18.000000,,2013-02-17 22:32:00,
2013-02-17 15:02:00,42.0,36.0,-100.00,NNE,24,1.0,5.0,79,0.00,,,0.01,18.000000,,2013-02-17 23:02:00,
2013-02-17 15:11:00,42.0,36.0,-100.00,NNE,24,1.0,5.0,79,0.00,,,0.01,18.000000,,2013-02-17 23:11:00,
2013-02-17 15:21:00,42.0,36.0,-100.00,NNE,24,1.0,5.0,79,0.00,,,0.01,18.000000,,2013-02-17 23:21:00,
2013-02-17 15:31:00,42.0,36.0,-100.00,NNE,24,1.0,5.0,79,0.00,,,0.01,18.000000,,2013-02-17 23:31:00,
2013-02-17 16:01:00,42.0,35.0,-100.00,NW,323,0.0,4.0,77,0.00,,,0.01,18.000000,,2013-02-18 00:01:00,
2013-02-17 16:11:00,42.0,35.0,-100.00,NW,323,0.0,4.0,77,0.00,,,0.01,18.000000,,2013-02-18 00:11:00,
2013-02-17 16:22:00,42.0,35.0,-100.00,NW,323,0.0,4.0,77,0.00,,,0.01,18.000000,,2013-02-18 00:22:00,
2013-02-17 16:31:00,42.0,35.0,-100.00,NW,323,0.0,4.0,77,0.00,,,0.01,18.000000,,2013-02-18 00:31:00,
2013-02-17 17:01:00,42.0,37.0,-100.00,North,0,0.0,4.0,81,0.00,,,0.01,19.000000,,2013-02-18 01:01:00,
2013-02-17 17:11:00,42.0,37.0,-100.00,North,0,0.0,4.0,81,0.00,,,0.01,19.000000,,2013-02-18 01:11:00,
2013-02-17 17:21:00,42.0,37.0,-100.00,North,0,0.0,4.0,81,0.00,,,0.01,19.000000,,2013-02-18 01:21:00,
2013-02-17 17:31:00,42.0,37.0,-100.00,North,0,0.0,4.0,81,0.00,,,0.01,19.000000,,2013-02-18 01:31:00,
2013-02-17 18:01:00,40.0,35.0,-100.00,SE,137,0.0,2.0,82,0.00,,,0.01,19.000000,,2013-02-18 02:01:00,
2013-02-17 18:11:00,40.0,35.0,-100.00,SE,137,0.0,2.0,82,0.00,,,0.01,19.000000,,2013-02-18 02:11:00,
2013-02-17 18:21:00,40.0,35.0,-100.00,SE,137,0.0,2.0,82,0.00,,,0.01,19.000000,,2013-02-18 02:21:00,
2013-02-17 18:31:00,40.0,35.0,-100.00,SE,137,0.0,2.0,82,0.00,,,0.01,19.000000,,2013-02-18 02:31:00,
2013-02-17 19:01:00,38.0,35.0,-100.00,North,0,0.0,0.0,89,0.00,,,0.01,20.000000,,2013-02-18 03:01:00,
2013-02-17 19:11:00,38.0,35.0,-100.00,North,0,0.0,0.0,89,0.00,,,0.01,20.000000,,2013-02-18 03:11:00,
2013-02-17 19:21:00,38.0,35.0,-100.00,North,0,0.0,0.0,89,0.00,,,0.01,20.000000,,2013-02-18 03:21:00,
2013-02-17 19:31:00,38.0,35.0,-100.00,North,0,0.0,0.0,89,0.00,,,0.01,20.000000,,2013-02-18 03:31:00,
2013-02-17 20:01:00,37.0,35.0,-100.00,North,0,0.0,0.0,93,0.00,,,0.01,20.000000,,2013-02-18 04:01:00,
2013-02-17 20:11:00,37.0,35.0,-100.00,North,0,0.0,0.0,93,0.00,,,0.01,20.000000,,2013-02-18 04:11:00,
2013-02-17 20:21:00,37.0,35.0,-100.00,North,0,0.0,0.0,93,0.00,,,0.01,20.000000,,2013-02-18 04:21:00,
2013-02-17 20:32:00,37.0,35.0,-100.00,North,0,0.0,0.0,93,0.00,,,0.01,20.000000,,2013-02-18 04:32:00,
2013-02-17 21:01:00,37.0,35.0,-100.00,North,0,0.0,0.0,94,0.00,,,0.01,21.000000,,2013-02-18 05:01:00,
2013-02-17 21:11:00,37.0,35.0,-100.00,North,0,0.0,0.0,94,0.00,,,0.01,21.000000,,2013-02-18 05:11:00,
2013-02-17 21:21:00,37.0,35.0,-100.00,North,0,0.0,0.0,94,0.00,,,0.01,21.000000,,2013-02-18 05:21:00,
2013-02-17 21:31:00,37.0,35.0,-100.00,North,0,0.0,0.0,94,0.00,,,0.01,21.000000,,2013-02-18 05:31:00,
2013-02-17 22:02:00,36.0,35.0,-100.00,North,0,0.0,1.0,95,0.00,,,0.01,21.000000,,2013-02-18 06:02:00,
2013-02-17 22:11:00,36.0,35.0,-100.00,North,0,0.0,1.0,95,0.00,,,0.01,21.000000,,2013-02-18 06:11:00,
2013-02-17 22:21:00,36.0,35.0,-100.00,North,0,0.0,1.0,95,0.00,,,0.01,21.000000,,2013-02-18 06:21:00,
2013-02-17 22:31:00,36.0,35.0,-100.00,North,0,0.0,1.0,95,0.00,,,0.01,21.000000,,2013-02-18 06:31:00,
2013-02-17 23:01:00,34.0,34.0,-100.00,North,0,0.0,3.0,98,0.00,,,0.01,22.000000,,2013-02-18 07:01:00,
2013-02-17 23:11:00,34.0,34.0,-100.00,North,0,0.0,3.0,98,0.00,,,0.01,22.000000,,2013-02-18 07:11:00,
2013-02-17 23:21:00,34.0,34.0,-100.00,North,0,0.0,3.0,98,0.00,,,0.01,22.000000,,2013-02-18 07:21:00,
2013-02-17 23:31:00,34.0,34.0,-100.00,North,0,0.0,3.0,98,0.00,,,0.01,22.000000,,2013-02-18 07:31:00,